Previsão horária em Cepeliha

Hoje, 30 Julho, Sexta-feira

Tempo Temperatura Precipitação Vento Pressão Humidade
00:00 +17°C° 0 mm 2 m/s 740 mmHg 86%
01:00 +17°C° 0 mm 2 m/s 740 mmHg 88%
02:00 +17°C° 0 mm 2 m/s 740 mmHg 90%
03:00 +17°C° 0 mm 2 m/s 740 mmHg 90%
04:00 +18°C° 0 mm 1 m/s 740 mmHg 89%
05:00 +18°C° 0 mm 1 m/s 740 mmHg 88%
06:00 +19°C° 0 mm 2 m/s 740 mmHg 81%
07:00 +21°C° 0 mm 2 m/s 740 mmHg 73%
08:00 +24°C° 0 mm 2 m/s 739 mmHg 66%
09:00 +24°C° 0.5 mm 2 m/s 739 mmHg 69%
10:00 +24°C° 0.5 mm 3 m/s 739 mmHg 71%
11:00 +25°C° 0.5 mm 3 m/s 739 mmHg 74%
12:00 +24°C° 1.3 mm 3 m/s 739 mmHg 79%
13:00 +22°C° 1.3 mm 3 m/s 739 mmHg 84%
14:00 +21°C° 1.3 mm 2 m/s 739 mmHg 89%
15:00 +21°C° 0.4 mm 2 m/s 739 mmHg 88%
16:00 +21°C° 0.4 mm 2 m/s 738 mmHg 87%
17:00 +22°C° 0.4 mm 1 m/s 738 mmHg 86%
18:00 +21°C° 0.6 mm 1 m/s 738 mmHg 89%
19:00 +19°C° 0.6 mm 2 m/s 738 mmHg 92%
20:00 +18°C° 0.6 mm 2 m/s 738 mmHg 94%
21:00 +17°C° 0.3 mm 2 m/s 738 mmHg 95%
22:00 +16°C° 0.3 mm 2 m/s 738 mmHg 95%
23:00 +16°C° 0.3 mm 2 m/s 738 mmHg 95%

Amanhã, 31 Julho, Sábado

Tempo Temperatura Precipitação Vento Pressão Humidade
00:00 +16°C° 0.1 mm 2 m/s 738 mmHg 95%
01:00 +15°C° 0.1 mm 2 m/s 738 mmHg 95%
02:00 +15°C° 0.1 mm 2 m/s 738 mmHg 95%
03:00 +14°C° 0 mm 3 m/s 737 mmHg 94%
04:00 +14°C° 0 mm 3 m/s 737 mmHg 93%
05:00 +14°C° 0 mm 3 m/s 737 mmHg 92%
06:00 +17°C° 0 mm 4 m/s 737 mmHg 80%
07:00 +17°C° 0 mm 5 m/s 737 mmHg 69%
08:00 +20°C° 0 mm 5 m/s 737 mmHg 58%
09:00 +19°C° 0.1 mm 5 m/s 738 mmHg 63%
10:00 +19°C° 0.1 mm 5 m/s 738 mmHg 69%
11:00 +18°C° 0.1 mm 4 m/s 738 mmHg 75%
12:00 +20°C° 0 mm 5 m/s 738 mmHg 67%
13:00 +21°C° 0 mm 5 m/s 738 mmHg 59%
14:00 +23°C° 0 mm 6 m/s 738 mmHg 51%
15:00 +23°C° 0.1 mm 5 m/s 739 mmHg 55%
16:00 +22°C° 0.1 mm 5 m/s 739 mmHg 59%
17:00 +22°C° 0.1 mm 5 m/s 739 mmHg 63%
18:00 +21°C° 0 mm 4 m/s 740 mmHg 69%
19:00 +20°C° 0 mm 4 m/s 740 mmHg 76%
20:00 +19°C° 0 mm 3 m/s 740 mmHg 82%
21:00 +18°C° 0 mm 3 m/s 740 mmHg 86%
22:00 +17°C° 0 mm 3 m/s 741 mmHg 90%
23:00 +16°C° 0 mm 2 m/s 741 mmHg 94%

Depois de amanhã, 1 Agosto, Domingo

Tempo Temperatura Precipitação Vento Pressão Humidade
00:00 +16°C° 0 mm 2 m/s 741 mmHg 95%
01:00 +16°C° 0 mm 2 m/s 741 mmHg 95%
02:00 +15°C° 0 mm 2 m/s 741 mmHg 96%
03:00 +16°C° 0 mm 2 m/s 742 mmHg 94%
04:00 +16°C° 0 mm 2 m/s 742 mmHg 92%
05:00 +17°C° 0 mm 2 m/s 742 mmHg 90%
06:00 +18°C° 0 mm 2 m/s 742 mmHg 84%
07:00 +19°C° 0 mm 3 m/s 742 mmHg 78%
08:00 +20°C° 0 mm 3 m/s 742 mmHg 72%
09:00 +19°C° 0.6 mm 3 m/s 742 mmHg 80%
10:00 +18°C° 0.6 mm 2 m/s 742 mmHg 88%
11:00 +18°C° 0.6 mm 1 m/s 741 mmHg 96%
12:00 +17°C° 0.2 mm 2 m/s 741 mmHg 95%
13:00 +18°C° 0.2 mm 2 m/s 741 mmHg 94%
14:00 +19°C° 0.2 mm 3 m/s 741 mmHg 92%
15:00 +20°C° 0.1 mm 3 m/s 741 mmHg 88%
16:00 +21°C° 0.1 mm 3 m/s 741 mmHg 84%
17:00 +22°C° 0.1 mm 3 m/s 741 mmHg 79%
18:00 +21°C° 0 mm 2 m/s 741 mmHg 84%
19:00 +20°C° 0 mm 1 m/s 741 mmHg 89%
20:00 +17°C° 0 mm 0 m/s 741 mmHg 94%
21:00 +19°C° 0 mm 1 m/s 741 mmHg 94%
22:00 +19°C° 0 mm 1 m/s 741 mmHg 94%
23:00 +18°C° 0 mm 1 m/s 741 mmHg 94%

2 Agosto, Segunda-feira

Tempo Temperatura Precipitação Vento Pressão Humidade
00:00 +19°C° 0.1 mm 1 m/s 741 mmHg 95%
01:00 +19°C° 0.1 mm 1 m/s 741 mmHg 95%
02:00 +18°C° 0.1 mm 2 m/s 741 mmHg 95%
03:00 +17°C° 0 mm 2 m/s 741 mmHg 95%
04:00 +18°C° 0 mm 1 m/s 741 mmHg 95%
05:00 +18°C° 0 mm 1 m/s 741 mmHg 95%
06:00 +19°C° 0 mm 2 m/s 741 mmHg 87%
07:00 +21°C° 0 mm 2 m/s 741 mmHg 78%
08:00 +23°C° 0 mm 2 m/s 741 mmHg 70%
09:00 +25°C° 0 mm 2 m/s 741 mmHg 61%
10:00 +26°C° 0 mm 2 m/s 741 mmHg 52%
11:00 +28°C° 0 mm 2 m/s 741 mmHg 43%
12:00 +28°C° 0 mm 3 m/s 740 mmHg 42%
13:00 +28°C° 0 mm 3 m/s 740 mmHg 42%
14:00 +28°C° 0 mm 4 m/s 740 mmHg 41%
15:00 +26°C° 0.1 mm 3 m/s 740 mmHg 55%
16:00 +23°C° 0.1 mm 2 m/s 739 mmHg 68%
17:00 +21°C° 0.1 mm 1 m/s 739 mmHg 82%
18:00 +20°C° 0.2 mm 1 m/s 739 mmHg 84%
19:00 +20°C° 0.2 mm 1 m/s 738 mmHg 87%
20:00 +18°C° 0.2 mm 2 m/s 738 mmHg 90%
21:00 +18°C° 3 mm 2 m/s 738 mmHg 93%
22:00 +18°C° 3 mm 2 m/s 737 mmHg 95%
23:00 +18°C° 3 mm 2 m/s 737 mmHg 97%

3 Agosto, Terça-feira

Tempo Temperatura Precipitação Vento Pressão Humidade
00:00 +18°C° 0.2 mm 3 m/s 737 mmHg 97%
01:00 +17°C° 0.2 mm 3 m/s 737 mmHg 97%
02:00 +17°C° 0.2 mm 3 m/s 737 mmHg 97%
03:00 +17°C° 0 mm 3 m/s 738 mmHg 96%
04:00 +16°C° 0 mm 3 m/s 739 mmHg 95%
05:00 +15°C° 0 mm 4 m/s 739 mmHg 94%
06:00 +17°C° 0 mm 4 m/s 740 mmHg 87%
07:00 +18°C° 0 mm 4 m/s 740 mmHg 79%
08:00 +19°C° 0 mm 4 m/s 740 mmHg 72%
09:00 +20°C° 0 mm 4 m/s 741 mmHg 66%
10:00 +22°C° 0 mm 4 m/s 741 mmHg 60%
11:00 +23°C° 0 mm 4 m/s 741 mmHg 54%
12:00 +23°C° 0.1 mm 4 m/s 741 mmHg 52%
13:00 +23°C° 0.1 mm 4 m/s 742 mmHg 51%
14:00 +23°C° 0.1 mm 4 m/s 742 mmHg 49%
15:00 +24°C° 0 mm 3 m/s 742 mmHg 49%
16:00 +24°C° 0 mm 3 m/s 742 mmHg 48%
17:00 +24°C° 0 mm 3 m/s 743 mmHg 48%
18:00 +21°C° 0 mm 3 m/s 743 mmHg 55%
19:00 +19°C° 0 mm 2 m/s 744 mmHg 62%
20:00 +18°C° 0 mm 2 m/s 744 mmHg 68%
21:00 +16°C° 0 mm 2 m/s 745 mmHg 75%
22:00 +15°C° 0 mm 1 m/s 745 mmHg 81%
23:00 +14°C° 0 mm 1 m/s 745 mmHg 87%

4 Agosto, Quarta-feira

Tempo Temperatura Precipitação Vento Pressão Humidade
00:00 +13°C° 0 mm 1 m/s 746 mmHg 88%
01:00 +13°C° 0 mm 1 m/s 746 mmHg 89%
02:00 +12°C° 0 mm 1 m/s 747 mmHg 91%
03:00 +12°C° 0 mm 1 m/s 747 mmHg 90%
04:00 +12°C° 0 mm 1 m/s 748 mmHg 90%
05:00 +12°C° 0 mm 1 m/s 748 mmHg 90%
06:00 +14°C° 0 mm 2 m/s 748 mmHg 79%
07:00 +16°C° 0 mm 2 m/s 749 mmHg 68%
08:00 +18°C° 0 mm 2 m/s 749 mmHg 57%
09:00 +19°C° 0 mm 2 m/s 749 mmHg 51%
10:00 +20°C° 0 mm 2 m/s 750 mmHg 46%
11:00 +21°C° 0 mm 2 m/s 750 mmHg 41%
12:00 +23°C° 0 mm 2 m/s 750 mmHg 40%
13:00 +23°C° 0 mm 1 m/s 750 mmHg 38%
14:00 +23°C° 0 mm 1 m/s 750 mmHg 37%
15:00 +23°C° 0 mm 1 m/s 750 mmHg 39%
16:00 +23°C° 0 mm 1 m/s 750 mmHg 41%
17:00 +23°C° 0 mm 1 m/s 750 mmHg 43%
18:00 +20°C° 0 mm 1 m/s 750 mmHg 48%
19:00 +17°C° 0 mm 2 m/s 751 mmHg 53%
20:00 +15°C° 0 mm 2 m/s 751 mmHg 59%
21:00 +15°C° 0 mm 2 m/s 751 mmHg 59%
22:00 +14°C° 0 mm 2 m/s 752 mmHg 60%
23:00 +13°C° 0 mm 2 m/s 752 mmHg 60%
Mostrar mais

Necessitamos do seu Consentimento

A Meteoprog e os seus Fornecedores de Serviços podem armazenar e aceder a dados pessoais como cookies, identificadores do dispositivo ou outras tecnologias semelhantes existentes no seu dispositivo e processar estes dados para personalizar conteúdos e anúncios, assim como funcionalidades nas redes sociais e análise de tráfego.

  • Armazenar e/ou aceder a informações no seu dispositivo

    Os cookies, identificadores do dispositivo ou outras informações podem ser armazenados ou acedidos no seu dispositivo, para os fins acima indicados.

  • Anúncios e conteúdos personalizados, medição de anúncios e conteúdos, dados sobre o público-alvo e desenvolvimento de produtos

    Os anúncios e os conteúdos podem ser personalizados com base num perfil. Podem ser adicionados dados adicionais para uma maior personalização dos anúncios e dos conteúdos. A eficácia dos anúncios e dos conteúdos pode ser medida. Podem ser obtidas informações sobre o público que visualizou os anúncios e os conteúdos. Estes dados podem ser usados para desenvolver ou melhorar sistemas, softwares ou a experiência do utilizador.

Ao clicar em "Eu concordo”, permitirá o uso de cookies, identificadores do dispositivo e web beacons mencionados ou outras tecnologias semelhantes. As configurações do navegador do seu dispositivo podem ser alteradas.

Para certos fins, podem ser invocados interesses legítimos ao invés de consentimento. Pode ler mais informação sobre este assunto na nossa Política de Privacidade e Cookies.